period_start,C,m1,H,J0,J1,J2,J3,J4,J5,JA,JB,JC,JD,JJ,JK,JN,#
2014-01-28 00:00:28,0.47,1.91,0.00,16.67,22.82,26.32,6.25,30.25,1024.26,2055.99,2876.09,2804.85,3048.84,350.29,333.87,5.22,0000 0000 0000 0000 000000
2014-01-28 00:01:28,0.49,1.91,0.00,16.67,22.82,26.33,6.30,30.46,1024.24,2055.97,2874.99,2804.11,3048.07,350.68,334.17,5.23,0000 0000 0000 0000 000000
2014-01-28 00:02:28,0.51,1.92,0.00,16.67,22.82,26.28,6.29,30.33,1024.16,2055.95,2873.88,2803.33,3047.25,350.34,333.65,5.23,0000 0000 0000 0000 000000
2014-01-28 00:03:29,0.55,1.92,0.00,16.66,22.82,26.32,6.28,30.67,1024.11,2055.97,2872.69,2802.49,3046.39,350.59,334.03,5.24,0000 0000 0000 0000 000000
2014-01-28 00:04:29,0.58,1.92,0.00,16.66,22.82,26.31,6.30,30.63,1024.14,2055.98,2871.35,2801.59,3045.45,350.31,333.80,5.24,0000 0000 0000 0000 000000
2014-01-28 00:05:30,0.62,1.92,0.00,16.67,22.82,26.31,6.28,30.46,1024.08,2055.95,2869.95,2800.62,3044.44,350.90,334.34,5.25,0000 0000 0000 0000 000000
2014-01-28 00:06:30,0.65,1.93,0.00,16.67,22.82,26.29,6.22,30.42,1024.10,2055.96,2868.56,2799.62,3043.40,350.64,334.10,5.26,0000 0000 0000 0000 000000
2014-01-28 00:07:30,0.67,1.93,0.00,16.67,22.82,26.29,6.17,30.33,1024.10,2055.98,2867.09,2798.60,3042.31,349.76,333.25,5.26,0000 0000 0000 0000 000000
2014-01-28 00:08:31,0.71,1.93,0.00,16.65,22.82,26.30,6.35,30.38,1024.09,2055.96,2865.60,2797.59,3041.24,350.33,333.82,5.27,0000 0000 0000 0000 000000
2014-01-28 00:09:31,0.70,1.94,0.00,16.64,22.81,26.26,6.20,30.42,1024.10,2055.96,2864.13,2796.59,3040.17,349.94,333.44,5.27,0000 0000 0000 0000 000000
2014-01-28 00:10:31,0.69,1.95,0.00,16.64,22.81,26.29,6.11,30.42,1024.09,2055.97,2862.66,2795.57,3039.05,349.57,333.09,5.28,0000 0000 0000 0000 000000
2014-01-28 00:11:32,0.71,1.95,0.00,16.64,22.80,26.29,6.21,30.50,1024.11,2055.96,2861.17,2794.55,3037.96,349.44,332.98,5.28,0000 0000 0000 0000 000000
2014-01-28 00:12:32,0.70,1.96,0.00,16.64,22.80,26.31,6.12,30.25,1024.20,2055.96,2859.66,2793.51,3036.90,349.52,333.08,5.29,0000 0000 0000 0000 000000
2014-01-28 00:13:33,0.71,1.96,0.00,16.64,22.80,26.30,6.30,30.38,1024.15,2055.97,2858.13,2792.48,3035.79,350.69,334.18,5.30,0000 0000 0000 0000 000000
2014-01-28 00:14:33,0.72,1.96,0.00,16.64,22.80,26.29,6.27,30.21,1024.12,2055.97,2856.65,2791.40,3034.65,349.94,333.46,5.30,0000 0000 0000 0000 000000
2014-01-28 00:15:33,0.73,1.97,0.00,16.64,22.79,26.30,6.23,30.29,1024.11,2055.98,2855.06,2790.30,3033.51,349.23,332.78,5.31,0000 0000 0000 0000 000000
2014-01-28 00:16:34,0.75,1.97,0.00,16.64,22.79,26.29,6.13,30.42,1024.21,2055.99,2853.44,2789.20,3032.37,350.48,334.15,5.31,0000 0000 0000 0000 000000
2014-01-28 00:17:34,0.76,1.98,0.00,16.62,22.79,26.25,6.16,30.50,1024.29,2055.97,2851.78,2788.06,3031.16,350.16,333.87,5.32,0000 0000 0000 0000 000000
2014-01-28 00:18:34,0.80,1.98,0.00,16.63,22.79,26.29,6.30,30.75,1024.36,2055.99,2850.04,2786.88,3029.93,349.67,333.30,5.33,0000 0000 0000 0000 000000
2014-01-28 00:19:35,0.80,1.99,0.00,16.62,22.79,26.29,6.27,30.88,1024.38,2055.98,2848.44,2785.75,3028.76,350.18,333.80,5.33,0000 0000 0000 0000 000000
2014-01-28 00:20:35,0.80,1.99,0.00,16.63,22.79,26.29,6.33,30.83,1024.37,2055.99,2846.79,2784.60,3027.58,350.17,333.78,5.34,0000 0000 0000 0000 000000
2014-01-28 00:21:35,0.78,2.00,0.00,16.64,22.79,26.28,6.33,30.63,1024.36,2055.99,2845.18,2783.50,3026.40,350.64,334.22,5.34,0000 0000 0000 0000 000000
2014-01-28 00:22:36,0.76,2.00,0.00,16.63,22.79,26.25,6.14,30.54,1024.34,2055.98,2843.64,2782.38,3025.20,350.11,333.70,5.35,0000 0000 0000 0000 000000
2014-01-28 00:23:36,0.75,2.00,0.00,16.61,22.79,26.24,6.38,30.67,1024.33,2055.98,2842.16,2781.30,3024.08,350.61,334.20,5.36,0000 0000 0000 0000 000000
2014-01-28 00:24:36,0.71,2.01,0.00,16.61,22.79,26.24,6.17,30.38,1024.38,2055.98,2840.82,2780.33,3022.97,349.73,333.39,5.36,0000 0000 0000 0000 000000
2014-01-28 00:25:37,0.70,2.01,0.00,16.62,22.78,26.27,6.19,30.29,1024.39,2055.99,2839.44,2779.37,3021.90,349.53,333.19,5.37,0000 0000 0000 0000 000000
2014-01-28 00:26:37,0.69,2.02,0.00,16.62,22.78,26.25,6.19,30.29,1024.42,2055.99,2838.00,2778.37,3020.82,350.09,333.73,5.37,0000 0000 0000 0000 000000
2014-01-28 00:27:38,0.69,2.02,0.00,16.61,22.77,26.26,6.28,30.08,1024.43,2055.99,2836.62,2777.40,3019.78,350.24,333.88,5.38,0000 0000 0000 0000 000000
2014-01-28 00:28:38,0.67,2.03,0.00,16.60,22.77,26.15,6.33,30.33,1024.43,2055.99,2835.24,2776.44,3018.76,350.50,334.06,5.38,0000 0000 0000 0000 000000
2014-01-28 00:29:38,0.67,2.03,0.00,16.61,22.77,26.22,6.43,30.63,1024.43,2055.99,2833.81,2775.46,3017.76,350.19,333.92,5.39,0000 0000 0000 0000 000000
2014-01-28 00:30:39,0.68,2.03,1.00,16.62,22.77,26.19,5.98,30.21,1024.42,2055.99,2832.54,2774.53,3016.74,348.89,332.92,5.40,0000 0000 0000 0000 000000
2014-01-28 00:31:39,0.63,2.04,1.00,16.62,22.77,26.19,6.26,30.42,1024.43,2055.99,2831.31,2773.63,3015.77,349.90,333.55,5.40,0000 0000 0000 0000 000000
2014-01-28 00:32:39,0.61,2.04,1.00,16.61,22.77,26.21,6.30,30.42,1024.43,2055.99,2830.00,2772.72,3014.79,349.88,333.55,5.41,0000 0000 0000 0000 000000
2014-01-28 00:33:40,0.59,2.04,1.00,16.59,22.77,26.23,6.33,30.25,1024.43,2055.98,2828.81,2771.89,3013.88,350.44,334.10,5.41,0000 0000 0000 0000 000000
2014-01-28 00:34:40,0.59,2.05,1.00,16.59,22.77,26.24,6.17,30.33,1024.43,2055.99,2827.75,2771.14,3013.03,349.55,333.24,5.42,0000 0000 0000 0000 000000
2014-01-28 00:35:41,0.55,2.05,1.00,16.61,22.77,26.26,6.32,30.46,1024.43,2055.99,2826.74,2770.36,3012.21,349.96,333.61,5.43,0000 0000 0000 0000 000000
2014-01-28 00:36:41,0.54,2.05,1.00,16.62,22.77,26.25,6.28,30.21,1024.43,2055.99,2825.61,2769.56,3011.39,350.25,334.40,5.43,0000 0000 0000 0000 000000
2014-01-28 00:37:41,0.52,2.06,1.00,16.61,22.77,26.26,6.21,30.50,1024.43,2055.98,2824.42,2768.76,3010.51,349.89,333.56,5.44,0000 0000 0000 0000 000000
2014-01-28 00:38:41,0.57,2.06,1.00,16.61,22.77,26.27,6.13,30.17,1024.43,2055.99,2823.12,2767.86,3009.58,349.69,333.36,5.44,0000 0000 0000 0000 000000
2014-01-28 00:39:42,0.64,2.06,1.00,16.61,22.77,26.25,6.23,30.25,1024.43,2055.99,2821.72,2766.90,3008.60,349.29,332.98,5.45,0000 0000 0000 0000 000000
2014-01-28 00:40:42,0.67,2.07,1.00,16.62,22.77,26.28,6.23,30.21,1024.43,2055.99,2820.37,2765.97,3007.67,349.56,333.23,5.46,0000 0000 0000 0000 000000
2014-01-28 00:41:42,0.63,2.07,1.00,16.62,22.76,26.25,6.33,30.17,1024.43,2055.99,2819.26,2765.15,3006.82,350.93,334.48,5.46,0000 0000 0000 0000 000000
2014-01-28 00:42:43,0.58,2.07,1.00,16.61,22.75,26.24,6.13,30.33,1024.43,2055.99,2818.13,2764.34,3005.95,349.03,332.73,5.47,0000 0000 0000 0000 000000
2014-01-28 00:43:43,0.56,2.08,1.00,16.62,22.75,26.22,6.26,30.38,1024.43,2055.99,2816.94,2763.47,3005.06,350.07,333.70,5.47,0000 0000 0000 0000 000000
2014-01-28 00:44:43,0.61,2.08,1.00,16.62,22.75,26.22,6.31,30.33,1024.43,2055.99,2815.57,2762.50,3004.09,349.39,333.07,5.48,0000 0000 0000 0000 000000
2014-01-28 00:45:44,0.67,2.09,1.00,16.60,22.75,26.23,6.33,30.33,1024.43,2055.98,2814.21,2761.50,3003.07,349.96,333.38,5.48,0000 0000 0000 0000 000000
2014-01-28 00:46:44,0.67,2.09,1.00,16.59,22.75,26.24,6.22,30.46,1024.43,2055.99,2812.92,2760.54,3002.10,349.69,333.38,5.49,0000 0000 0000 0000 000000
2014-01-28 00:47:44,0.65,2.09,1.00,16.59,22.75,26.23,6.14,30.67,1024.43,2055.99,2811.70,2759.61,3001.09,349.63,333.25,5.50,0000 0000 0000 0000 000000
2014-01-28 00:48:44,0.61,2.10,1.00,16.58,22.74,26.23,6.30,30.75,1024.43,2055.99,2810.46,2758.71,3000.04,349.81,333.50,5.50,0000 0000 0000 0000 000000
2014-01-28 00:49:45,0.64,2.10,1.00,16.59,22.74,26.23,6.30,30.42,1024.43,2055.99,2809.11,2757.74,2998.98,349.89,333.57,5.51,0000 0000 0000 0000 000000
2014-01-28 00:50:45,0.68,2.10,1.00,16.59,22.74,26.22,6.35,30.29,1024.43,2055.99,2807.76,2756.76,2997.92,349.32,333.03,5.51,0000 0000 0000 0000 000000
2014-01-28 00:51:45,0.69,2.11,1.00,16.59,22.74,26.23,6.28,30.13,1024.43,2055.99,2806.45,2755.81,2996.86,350.44,334.10,5.52,0000 0000 0000 0000 000000
2014-01-28 00:52:46,0.67,2.11,1.00,16.59,22.74,26.22,6.31,30.29,1024.42,2055.99,2805.09,2754.85,2995.84,350.27,333.92,5.53,0000 0000 0000 0000 000000
2014-01-28 00:53:46,0.65,2.12,1.00,16.59,22.74,26.20,6.22,29.96,1024.43,2055.99,2803.80,2753.99,2994.88,350.00,333.68,5.53,0000 0000 0000 0000 000000
2014-01-28 00:54:47,0.65,2.12,1.00,16.59,22.74,26.23,6.36,30.33,1024.42,2055.99,2802.55,2753.18,2993.94,349.95,333.63,5.54,0000 0000 0000 0000 000000
2014-01-28 00:55:47,0.62,2.12,1.00,16.59,22.74,26.23,6.31,30.42,1024.43,2055.99,2801.30,2752.27,2993.04,351.34,334.94,5.54,0000 0000 0000 0000 000000
2014-01-28 00:56:47,0.62,2.13,1.00,16.58,22.74,26.24,6.27,30.25,1024.43,2055.99,2800.10,2751.44,2992.13,349.66,333.42,5.55,0000 0000 0000 0000 000000
2014-01-28 00:57:48,0.58,2.13,1.00,16.57,22.74,26.22,6.32,30.33,1024.43,2055.99,2798.85,2750.61,2991.16,349.56,333.53,5.55,0000 0000 0000 0000 000000
2014-01-28 00:58:48,0.60,2.13,1.00,16.57,22.74,26.22,6.25,30.21,1024.43,2055.99,2797.59,2749.71,2990.20,350.18,333.87,5.56,0000 0000 0000 0000 000000
2014-01-28 00:59:48,0.64,2.14,1.00,16.57,22.74,26.23,6.13,30.13,1024.43,2055.99,2796.32,2748.79,2989.17,348.82,332.88,5.57,0000 0000 0000 0000 000000
2014-01-28 01:00:49,0.64,2.14,1.00,16.55,22.74,26.23,6.31,30.25,1024.43,2055.99,2794.96,2747.92,2988.18,350.67,334.16,5.57,0000 0000 0000 0000 000000
2014-01-28 01:01:49,0.66,2.15,1.00,16.54,22.74,26.22,6.29,30.17,1024.43,2055.99,2793.59,2746.96,2987.19,349.86,333.70,5.58,0000 0000 0000 0000 000000
2014-01-28 01:02:49,0.68,2.15,1.00,16.54,22.74,26.20,6.20,30.25,1024.43,2055.99,2792.17,2745.97,2986.12,349.44,333.19,5.58,0000 0000 0000 0000 000000
2014-01-28 01:03:50,0.71,2.15,1.00,16.55,22.73,26.22,6.40,30.21,1024.43,2055.99,2790.70,2744.93,2985.12,351.02,334.70,5.59,0000 0000 0000 0000 000000
2014-01-28 01:04:50,0.72,2.16,1.00,16.56,22.73,26.22,6.29,30.29,1024.42,2055.99,2789.22,2743.88,2984.02,350.47,334.15,5.60,0000 0000 0000 0000 000000
2014-01-28 01:05:50,0.71,2.16,1.00,16.57,22.72,26.21,6.36,30.25,1024.42,2055.99,2787.92,2743.05,2983.18,349.79,333.51,5.60,0000 0000 0000 0000 000000
2014-01-28 01:06:51,0.62,2.17,1.00,16.56,22.72,26.22,6.28,30.17,1024.40,2055.99,2786.79,2742.24,2982.31,349.87,333.57,5.61,0000 0000 0000 0000 000000
2014-01-28 01:07:51,0.57,2.17,1.00,16.56,22.73,26.22,6.38,30.08,1024.42,2055.99,2785.68,2741.44,2981.44,351.35,335.00,5.61,0000 0000 0000 0000 000000
2014-01-28 01:08:51,0.54,2.17,1.00,16.55,22.72,26.20,6.38,30.13,1024.42,2055.98,2784.67,2740.64,2980.62,351.76,335.41,5.62,0000 0000 0000 0000 000000
2014-01-28 01:09:51,0.53,2.18,1.00,16.55,22.72,26.21,6.23,30.13,1024.41,2055.99,2783.64,2739.96,2979.87,350.47,334.17,5.63,0000 0000 0000 0000 000000
2014-01-28 01:10:52,0.55,2.18,1.00,16.55,22.72,26.20,6.02,30.13,1024.40,2055.99,2782.57,2739.25,2979.09,348.54,332.32,5.63,0000 0000 0000 0000 000000
2014-01-28 01:11:52,0.50,2.18,1.00,16.54,22.72,26.22,6.32,30.08,1024.41,2055.99,2781.58,2738.51,2978.35,350.42,334.12,5.64,0000 0000 0000 0000 000000
2014-01-28 01:12:53,0.48,2.18,1.00,16.55,22.72,26.20,6.28,30.29,1024.36,2055.99,2780.60,2737.83,2977.59,350.37,334.06,5.64,0000 0000 0000 0000 000000
2014-01-28 01:13:53,0.50,2.19,1.00,16.57,22.72,26.20,6.38,30.21,1024.25,2055.99,2779.61,2737.16,2976.90,350.34,333.98,5.65,0000 0000 0000 0000 000000
2014-01-28 01:14:53,0.49,2.19,1.00,16.57,22.72,26.18,6.23,30.42,1024.13,2055.99,2778.58,2736.42,2976.19,348.97,332.57,5.65,0000 0000 0000 0000 000000
2014-01-28 01:15:53,0.49,2.19,1.00,16.56,22.72,26.16,6.33,30.00,1024.10,2055.99,2777.50,2735.64,2975.34,350.39,333.97,5.66,0000 0000 0000 0000 000000
2014-01-28 01:16:54,0.57,2.20,1.00,16.54,22.72,26.17,6.42,30.25,1024.14,2055.99,2776.47,2734.89,2974.52,350.42,334.20,5.67,0000 0000 0000 0000 000000
2014-01-28 01:17:54,0.53,2.20,1.00,16.54,22.72,26.19,6.29,30.25,1024.07,2055.99,2775.44,2734.22,2973.74,350.17,333.78,5.67,0000 0000 0000 0000 000000
2014-01-28 01:18:54,0.49,2.20,1.00,16.54,22.72,26.18,6.25,30.00,1024.05,2055.99,2774.46,2733.50,2972.96,350.11,333.71,5.68,0000 0000 0000 0000 000000
2014-01-28 01:19:55,0.51,2.21,1.00,16.54,22.72,26.17,6.08,30.17,1024.03,2055.99,2773.41,2732.77,2972.18,349.26,332.55,5.68,0000 0000 0000 0000 000000
2014-01-28 01:20:55,0.55,2.21,1.00,16.54,22.72,26.18,6.23,30.17,1024.02,2055.99,2772.26,2731.93,2971.30,349.13,332.78,5.69,0000 0000 0000 0000 000000
2014-01-28 01:21:55,0.60,2.21,1.00,16.52,22.72,26.16,6.15,30.29,1024.00,2055.99,2771.22,2731.18,2970.50,349.32,332.97,5.70,0000 0000 0000 0000 000000
2014-01-28 01:22:56,0.51,2.22,1.00,16.53,22.72,26.16,6.28,30.33,1024.01,2055.99,2770.24,2730.46,2969.75,350.54,334.13,5.70,0000 0000 0000 0000 000000
2014-01-28 01:23:56,0.49,2.22,1.00,16.53,22.72,26.17,6.22,30.29,1023.99,2055.99,2769.23,2729.76,2969.00,349.49,333.12,5.71,0000 0000 0000 0000 000000
2014-01-28 01:24:56,0.52,2.22,1.00,16.54,22.71,26.20,6.17,30.21,1023.99,2055.99,2768.22,2729.06,2968.21,349.20,332.83,5.71,0000 0000 0000 0000 000000
2014-01-28 01:25:57,0.51,2.22,1.00,16.55,22.71,26.21,6.29,30.38,1024.01,2055.99,2767.12,2728.24,2967.30,350.27,333.85,5.72,0000 0000 0000 0000 000000
2014-01-28 01:26:57,0.59,2.23,1.00,16.54,22.71,26.19,6.28,30.17,1023.97,2055.99,2766.04,2727.40,2966.44,351.05,334.58,5.72,0000 0000 0000 0000 000000
2014-01-28 01:27:57,0.55,2.23,1.00,16.54,22.70,26.20,6.17,30.33,1023.98,2055.99,2764.94,2726.59,2965.60,349.71,333.38,5.73,0000 0000 0000 0000 000000
2014-01-28 01:28:58,0.56,2.23,1.00,16.52,22.70,26.18,6.17,30.21,1023.98,2055.99,2763.88,2725.84,2964.81,349.63,333.37,5.74,0000 0000 0000 0000 000000
2014-01-28 01:29:58,0.55,2.24,1.00,16.52,22.70,26.15,6.28,29.96,1023.98,2055.99,2762.77,2725.02,2963.91,350.52,334.11,5.74,0000 0000 0000 0000 000000
2014-01-28 01:30:58,0.60,2.24,1.00,16.54,22.70,26.14,6.19,30.25,1023.99,2055.99,2761.66,2724.20,2963.00,349.66,332.80,5.75,0000 0000 0000 0000 000000
2014-01-28 01:31:58,0.59,2.24,1.00,16.55,22.70,26.13,6.23,30.25,1023.97,2055.99,2760.53,2723.37,2962.09,349.71,333.81,5.75,0000 0000 0000 0000 000000
2014-01-28 01:32:58,0.56,2.25,1.00,16.54,22.70,26.12,6.20,30.29,1023.95,2055.99,2759.39,2722.57,2961.20,349.82,333.47,5.76,0000 0000 0000 0000 000000
2014-01-28 01:33:58,0.59,2.25,1.00,16.54,22.70,26.13,6.11,30.13,1023.95,2055.99,2758.30,2721.75,2960.39,349.87,333.02,5.77,0000 0000 0000 0000 000000
2014-01-28 01:34:59,0.56,2.25,1.00,16.54,22.69,26.11,6.29,30.13,1023.95,2055.99,2757.24,2721.08,2959.59,350.37,333.82,5.77,0000 0000 0000 0000 000000
2014-01-28 01:35:59,0.52,2.26,1.00,16.54,22.70,26.13,6.22,30.17,1023.94,2055.99,2756.19,2720.35,2958.76,349.67,333.10,5.78,0000 0000 0000 0000 000000
2014-01-28 01:36:59,0.51,2.26,1.00,16.54,22.70,26.16,6.33,30.42,1023.94,2055.99,2755.15,2719.61,2958.02,349.64,333.23,5.78,0000 0000 0000 0000 000000
2014-01-28 01:37:59,0.54,2.26,1.00,16.56,22.69,26.16,6.26,30.38,1023.95,2055.99,2754.10,2718.84,2957.25,349.58,333.16,5.79,0000 0000 0000 0000 000000
2014-01-28 01:39:00,0.54,2.27,1.00,16.54,22.69,26.15,6.21,30.08,1023.95,2055.99,2753.13,2718.19,2956.47,350.14,333.70,5.80,0000 0000 0000 0000 000000
2014-01-28 01:40:00,0.45,2.27,1.00,16.54,22.69,26.15,6.32,30.17,1023.95,2055.99,2752.16,2717.46,2955.68,350.54,334.10,5.80,0000 0000 0000 0000 000000
2014-01-28 01:41:00,0.54,2.27,1.00,16.52,22.69,26.14,6.31,30.38,1023.96,2055.99,2751.17,2716.67,2954.87,350.17,333.76,5.81,0000 0000 0000 0000 000000
2014-01-28 01:42:00,0.55,2.28,1.00,16.52,22.69,26.16,6.20,30.08,1023.97,2055.99,2750.12,2715.86,2954.04,350.15,333.75,5.81,0000 0000 0000 0000 000000
2014-01-28 01:43:01,0.57,2.28,1.00,16.52,22.69,26.16,6.20,30.17,1023.95,2055.99,2749.03,2715.11,2953.22,348.96,332.62,5.82,0000 0000 0000 0000 000000
2014-01-28 01:44:01,0.53,2.28,1.00,16.52,22.69,26.17,6.08,30.17,1023.96,2055.99,2747.90,2714.26,2952.37,349.10,332.75,5.82,0000 0000 0000 0000 000000
2014-01-28 01:45:01,0.58,2.29,1.00,16.53,22.69,26.16,6.17,30.29,1023.95,2055.99,2746.74,2713.39,2951.47,349.08,332.72,5.83,0000 0000 0000 0000 000000
2014-01-28 01:46:01,0.58,2.29,1.00,16.54,22.69,26.17,6.27,30.50,1023.97,2055.99,2745.50,2712.45,2950.49,350.17,333.75,5.84,0000 0000 0000 0000 000000
2014-01-28 01:47:02,0.72,2.29,1.00,16.53,22.69,26.11,6.30,30.75,1023.95,2055.99,2744.22,2711.51,2949.45,349.98,333.57,5.84,0000 0000 0000 0000 000000
2014-01-28 01:48:02,0.66,2.30,1.00,16.52,22.69,26.09,6.23,30.38,1023.95,2055.99,2742.95,2710.58,2948.49,350.20,333.79,5.85,0000 0000 0000 0000 000000
2014-01-28 01:49:02,0.64,2.30,1.00,16.52,22.68,26.11,6.18,30.54,1023.95,2055.99,2741.70,2709.66,2947.51,348.72,332.71,5.85,0000 0000 0000 0000 000000
2014-01-28 01:50:02,0.67,2.31,1.00,16.52,22.68,26.11,6.17,30.42,1023.94,2055.99,2740.51,2708.77,2946.51,349.34,333.06,5.86,0000 0000 0000 0000 000000
2014-01-28 01:51:03,0.66,2.31,1.00,16.51,22.67,26.14,6.14,30.21,1023.95,2055.99,2739.32,2707.92,2945.53,349.68,333.31,5.87,0000 0000 0000 0000 000000
2014-01-28 01:52:03,0.63,2.31,1.00,16.50,22.67,26.14,6.21,30.33,1023.96,2055.99,2738.06,2707.01,2944.61,350.48,334.36,5.87,0000 0000 0000 0000 000000
2014-01-28 01:53:03,0.65,2.32,1.00,16.51,22.67,26.14,6.16,30.21,1023.97,2055.99,2736.75,2706.10,2943.70,349.26,332.91,5.88,0000 0000 0000 0000 000000
2014-01-28 01:54:03,0.65,2.32,1.00,16.51,22.67,26.14,6.22,30.29,1023.95,2055.99,2735.39,2705.11,2942.65,350.20,333.80,5.88,0000 0000 0000 0000 000000
2014-01-28 01:55:04,0.73,2.32,1.00,16.51,22.67,26.13,6.07,30.21,1023.95,2055.99,2733.89,2704.02,2941.53,349.55,333.19,5.89,0000 0000 0000 0000 000000
2014-01-28 01:56:04,0.78,2.33,1.00,16.50,22.67,26.12,6.18,30.63,1023.96,2055.99,2732.32,2702.91,2940.39,350.07,333.62,5.89,0000 0000 0000 0000 000000
2014-01-28 01:57:04,0.80,2.33,1.00,16.50,22.67,26.13,6.17,30.25,1023.95,2055.99,2730.76,2701.81,2939.25,348.83,332.51,5.90,0000 0000 0000 0000 000000
2014-01-28 01:58:04,0.78,2.34,1.00,16.51,22.67,26.12,6.27,30.33,1023.96,2055.99,2729.24,2700.72,2938.12,349.54,333.18,5.91,0000 0000 0000 0000 000000
2014-01-28 01:59:05,0.79,2.34,1.00,16.50,22.67,26.13,6.27,30.54,1023.94,2055.99,2727.69,2699.62,2936.94,349.86,333.49,5.91,0000 0000 0000 0000 000000
2014-01-28 02:00:05,0.80,2.35,1.00,16.49,22.67,26.10,6.39,30.42,1023.94,2055.99,2726.18,2698.52,2935.83,350.44,334.05,5.92,0000 0000 0000 0000 000000
2014-01-28 02:01:05,0.78,2.35,1.00,16.50,22.67,26.11,6.23,30.25,1023.95,2055.99,2724.62,2697.40,2934.65,350.30,333.91,5.92,0000 0000 0000 0000 000000
2014-01-28 02:02:05,0.84,2.36,1.00,16.49,22.67,26.15,6.24,30.33,1023.95,2055.99,2723.00,2696.24,2933.42,349.89,333.53,5.93,0000 0000 0000 0000 000000
2014-01-28 02:03:06,0.86,2.36,1.00,16.49,22.67,26.12,6.28,30.42,1023.95,2055.99,2721.52,2695.13,2932.31,349.86,333.50,5.94,0000 0000 0000 0000 000000
2014-01-28 02:04:06,0.77,2.37,1.00,16.48,22.67,26.12,6.35,30.42,1023.96,2055.99,2720.17,2694.22,2931.40,351.14,334.74,5.94,0000 0000 0000 0000 000000
2014-01-28 02:05:06,0.64,2.37,1.00,16.50,22.66,26.11,6.14,30.21,1023.95,2055.99,2719.12,2693.45,2930.57,349.59,333.25,5.95,0000 0000 0000 0000 000000
2014-01-28 02:06:06,0.56,2.37,1.00,16.51,22.66,26.08,6.22,30.25,1023.96,2055.99,2718.15,2692.72,2929.79,350.29,333.90,5.95,0000 0000 0000 0000 000000
2014-01-28 02:07:06,0.53,2.38,1.00,16.50,22.65,26.11,6.38,30.46,1023.95,2055.99,2717.20,2692.03,2929.03,350.34,333.94,5.96,0000 0000 0000 0000 000000
2014-01-28 02:08:07,0.49,2.38,1.00,16.49,22.65,26.11,6.34,30.46,1023.95,2055.99,2716.15,2691.32,2928.26,350.01,333.94,5.96,0000 0000 0000 0000 000000
2014-01-28 02:09:07,0.51,2.38,1.00,16.49,22.65,26.09,6.23,30.17,1023.98,2055.99,2715.11,2690.54,2927.49,349.99,333.63,5.97,0000 0000 0000 0000 000000
2014-01-28 02:10:07,0.58,2.39,1.00,16.50,22.65,26.10,6.33,30.42,1023.99,2055.99,2714.08,2689.82,2926.67,350.72,334.37,5.98,0000 0000 0000 0000 000000
2014-01-28 02:11:07,0.56,2.39,1.00,16.50,22.65,26.10,6.10,30.21,1023.95,2055.99,2712.94,2689.02,2925.83,350.59,334.38,5.98,0000 0000 0000 0000 000000
2014-01-28 02:12:07,0.58,2.39,1.00,16.49,22.65,26.04,6.24,30.17,1024.01,2055.99,2711.84,2688.21,2924.94,350.19,333.10,5.99,0000 0000 0000 0000 000000
2014-01-28 02:13:08,0.57,2.40,1.00,16.44,22.64,25.91,6.43,30.54,1024.03,2055.99,2710.74,2687.42,2924.10,350.11,334.14,5.99,0000 0000 0000 0000 000000
2014-01-28 02:14:08,0.57,2.40,1.00,16.41,22.64,25.93,6.15,30.29,1024.04,2056.00,2709.65,2686.65,2923.26,350.47,333.88,6.00,0000 0000 0000 0000 000000
2014-01-28 02:15:08,0.59,2.40,1.00,16.39,22.64,26.00,6.23,30.50,1024.02,2056.01,2708.66,2685.85,2922.38,349.91,333.69,6.01,0000 0000 0000 0000 000000
2014-01-28 02:16:08,0.58,2.41,1.00,16.39,22.64,25.97,6.33,30.54,1024.02,2056.00,2707.58,2685.05,2921.47,350.24,334.00,6.01,0000 0000 0000 0000 000000
2014-01-28 02:17:09,0.56,2.41,1.00,16.39,22.64,25.97,6.32,30.21,1023.99,2056.00,2706.61,2684.38,2920.61,351.01,334.27,6.02,0000 0000 0000 0000 000000
2014-01-28 02:18:09,0.52,2.41,1.00,16.39,22.64,25.98,6.21,30.21,1023.99,2056.00,2705.79,2683.73,2919.98,349.78,333.55,6.02,0000 0000 0000 0000 000000
2014-01-28 02:19:09,0.43,2.42,1.00,16.39,22.64,26.00,6.15,30.25,1023.96,2056.00,2705.04,2683.20,2919.31,349.10,332.90,6.03,0000 0000 0000 0000 000000
2014-01-28 02:20:10,0.40,2.42,1.00,16.39,22.64,26.00,6.17,30.04,1023.97,2056.00,2704.26,2682.55,2918.59,350.41,334.15,6.04,0000 0000 0000 0000 000000
2014-01-28 02:21:10,0.45,2.42,1.00,16.42,22.64,25.99,6.39,30.25,1023.98,2056.00,2703.45,2682.11,2918.08,350.56,334.35,6.04,0000 0000 0000 0000 000000
2014-01-28 02:22:10,0.36,2.42,1.00,16.42,22.64,26.01,6.27,30.50,1023.99,2056.00,2702.61,2681.51,2917.46,350.27,333.99,6.05,0000 0000 0000 0000 000000
2014-01-28 02:23:10,0.46,2.43,1.00,16.41,22.63,26.01,6.10,30.21,1024.00,2056.00,2701.82,2681.02,2916.95,349.59,333.34,6.05,0000 0000 0000 0000 000000
2014-01-28 02:24:11,0.35,2.43,1.00,16.42,22.63,26.03,6.14,30.21,1024.02,2056.00,2701.20,2680.41,2916.36,348.69,332.49,6.06,0000 0000 0000 0000 000000
2014-01-28 02:25:11,0.40,2.43,1.00,16.42,22.62,26.03,6.12,30.42,1024.05,2056.01,2700.50,2680.11,2915.86,349.54,333.31,6.06,0000 0000 0000 0000 000000
2014-01-28 02:26:11,0.30,2.43,1.00,16.42,22.62,26.05,6.29,30.29,1023.99,2056.01,2700.02,2679.57,2915.33,350.63,334.33,6.07,0000 0000 0000 0000 000000
2014-01-28 02:27:11,0.33,2.43,1.00,16.41,22.62,26.03,6.08,30.46,1024.00,2056.00,2699.39,2679.18,2914.92,349.03,333.39,6.08,0000 0000 0000 0000 000000
2014-01-28 02:28:12,0.30,2.44,1.00,16.41,22.62,26.00,6.36,30.33,1023.98,2056.00,2698.81,2678.74,2914.38,351.06,335.32,6.08,0000 0000 0000 0000 000000
2014-01-28 02:29:12,0.33,2.44,1.00,16.39,22.62,26.03,6.23,29.92,1023.96,2056.01,2698.27,2678.27,2914.08,349.98,333.73,6.09,0000 0000 0000 0000 000000
2014-01-28 02:30:12,0.30,2.44,1.00,16.39,22.62,26.05,6.31,30.17,1023.97,2056.00,2697.63,2677.92,2913.53,349.81,333.57,6.09,0000 0000 0000 0000 000000
2014-01-28 02:31:12,0.30,2.44,1.00,16.39,22.62,26.02,6.27,30.21,1023.95,2056.00,2696.89,2677.37,2913.06,349.91,333.45,6.10,0000 0000 0000 0000 000000
2014-01-28 02:32:13,0.38,2.44,1.00,16.40,22.62,26.01,6.13,30.42,1023.99,2056.00,2696.14,2676.93,2912.44,350.27,334.01,6.11,0000 0000 0000 0000 000000
2014-01-28 02:33:13,0.36,2.45,1.00,16.42,22.62,26.03,6.36,30.25,1023.97,2056.00,2695.37,2676.36,2912.03,351.50,335.16,6.11,0000 0000 0000 0000 000000
2014-01-28 02:34:13,0.40,2.45,1.00,16.42,22.62,26.02,6.10,30.04,1023.95,2056.00,2694.61,2675.90,2911.42,349.46,332.73,6.12,0000 0000 0000 0000 000000
2014-01-28 02:35:14,0.39,2.45,1.00,16.42,22.61,26.05,6.22,30.08,1023.96,2056.00,2693.74,2675.32,2910.77,349.96,333.43,6.12,0000 0000 0000 0000 000000
2014-01-28 02:36:14,0.43,2.45,1.00,16.42,22.61,26.05,6.32,30.29,1023.97,2056.00,2692.97,2674.74,2910.24,350.13,333.86,6.13,0000 0000 0000 0000 000000
2014-01-28 02:37:14,0.39,2.46,1.00,16.40,22.61,26.06,6.20,30.17,1023.96,2056.01,2692.18,2674.21,2909.62,349.27,333.05,6.13,0000 0000 0000 0000 000000